Mitchell, SD

3:47 AM CDT on August 31, 2016 (GMT -0500)
Mitchell Municipal

Weather History for KMHE - February, 2013

Change the Weather History Date:

Saturday, February 23, 2013

  Actual Average Record
Temperature  
Mean Temperature 11 °F 26 °F  
Max Temperature 22 °F 36 °F 70 °F (1958)
Min Temperature 0 °F 17 °F -24 °F (1914)
Degree Days  
Heating Degree Days 54 39  
Month to date heating degree days 965 967  
Since 1 July heating degree days 5246 5334  
Cooling Degree Days 0 0  
Month to date cooling degree days 0 0  
Year to date cooling degree days 0 0  
Moisture  
Dew Point 7 °F    
Average Humidity 84    
Maximum Humidity 95    
Minimum Humidity 73    
Precipitation  
Precipitation 0.00 in 0.01 in 1.37 in (1977)
Month to date precipitation 1.35 0.28  
Year to date precipitation 1.57 0.50  
Snow  
Snow 0.00 in - 10.00 in (1942)
Month to date snowfall 14.7  
Since 1 July snowfall 27.9  
Snow Depth 9.00 in    
Sea Level Pressure  
Sea Level Pressure 29.92 in    
Wind  
Wind Speed 6 mph (SE)    
Max Wind Speed 12 mph    
Max Gust Speed 13 mph    
Visibility 9 miles    
Events      
T = Trace of Precipitation, MM = Missing Value Source: NWS Daily Summary

Daily Weather History Graph

Daily Weather History Graph

Search for Another Location

Airport or City:

Trip Planner

Search our weather history database for the weather conditions in past years. The results will help you decide how hot, cold, wet, or windy it might be!

Date:

Astronomy

Feb. 23, 2013 Rise Set
Actual Time 7:18 AM CST 6:13 PM CST
Civil Twilight 6:49 AM CST 6:42 PM CST
Nautical Twilight 6:15 AM CST 7:15 PM CST
Astronomical Twilight 5:42 AM CST 7:49 PM CST
Moon 4:23 PM CST (2/23) 5:44 AM CST (2/23)
Length of Visible Light 11h 53m
Length of Day
10h 55m
Waxing Gibbous, 95% of the Moon is Illuminated
Feb 23
Waxing Gibbous
Feb 25
Full
Mar 4
Last Quarter
Mar 11
New
Mar 19
First Quarter

Hourly Weather History & Observations

Time (CST) Temp. Windchill Dew Point Humidity Pressure Visibility Wind Dir Wind Speed Gust Speed Precip Events Conditions
12:53 AM 9.0 °F 2.4 °F 6.1 °F 88% 29.99 in 8.0 mi SSE 3.5 mph - N/A   Clear
1:53 AM 6.1 °F -0.9 °F 3.9 °F 91% 29.98 in 7.0 mi ESE 3.5 mph - N/A   Clear
2:53 AM 5.0 °F -4.1 °F 1.9 °F 87% 29.96 in 10.0 mi SSE 4.6 mph - N/A   Clear
3:53 AM 1.9 °F -7.6 °F -0.9 °F 88% 29.94 in 10.0 mi SSE 4.6 mph - N/A   Clear
4:53 AM 3.0 °F -6.4 °F -0.0 °F 87% 29.94 in 10.0 mi SE 4.6 mph - N/A   Clear
5:53 AM 3.0 °F -8.0 °F -0.0 °F 87% 29.94 in 10.0 mi SE 5.8 mph - N/A   Clear
6:53 AM -0.0 °F -11.6 °F -2.9 °F 88% 29.94 in 10.0 mi ESE 5.8 mph - N/A   Clear
7:53 AM 1.0 °F -8.7 °F -2.9 °F 83% 29.93 in 10.0 mi SE 4.6 mph - N/A   Clear
8:53 AM 6.1 °F -4.3 °F 1.9 °F 83% 29.92 in 9.0 mi SE 5.8 mph - N/A   Partly Cloudy
9:53 AM 10.0 °F 0.4 °F 6.1 °F 84% 29.92 in 10.0 mi SE 5.8 mph - N/A   Clear
10:53 AM 14.0 °F 3.9 °F 9.0 °F 80% 29.91 in 9.0 mi SE 6.9 mph - N/A   Clear
11:53 AM 15.1 °F 4.2 °F 10.0 °F 80% 29.91 in 10.0 mi ESE 8.1 mph - N/A   Clear
12:53 PM 17.1 °F 6.6 °F 12.0 °F 81% 29.90 in 10.0 mi ESE 8.1 mph - N/A   Clear
1:53 PM 19.9 °F 10.1 °F 14.0 °F 78% 29.89 in 10.0 mi ESE 8.1 mph - N/A   Clear
2:53 PM 21.0 °F 10.6 °F 15.1 °F 78% 29.86 in 10.0 mi ESE 9.2 mph - N/A   Clear
3:53 PM 21.0 °F 10.6 °F 15.1 °F 78% 29.86 in 10.0 mi SE 9.2 mph - N/A   Clear
4:53 PM 21.0 °F 11.4 °F 15.1 °F 78% 29.87 in 10.0 mi ESE 8.1 mph - N/A   Clear
5:53 PM 19.0 °F 8.2 °F 12.9 °F 77% 29.88 in 10.0 mi SE 9.2 mph - N/A   Clear
6:53 PM 16.0 °F 6.3 °F 12.0 °F 84% 29.91 in 10.0 mi SSE 6.9 mph - N/A   Clear
7:53 PM 10.9 °F 0.2 °F 9.0 °F 92% 29.92 in 6.0 mi East 6.9 mph - N/A   Clear
8:53 PM 10.9 °F 2.9 °F 8.1 °F 88% 29.92 in 4.0 mi East 4.6 mph - N/A   Clear
9:53 PM 10.9 °F - 9.0 °F 92% 29.94 in 4.0 mi Calm Calm - N/A   Clear
10:53 PM 9.0 °F - 6.1 °F 88% 29.94 in 3.0 mi Calm Calm - N/A   Clear
11:53 PM 9.0 °F -0.9 °F 6.1 °F 88% 29.94 in 6.0 mi NE 5.8 mph - N/A   Clear